Weather in Tungokochen

Russia / Zabaykalsky Krai     53°32′02″N   115°36′54″E
temp.,
°C
wind,
m/s
gust,
m/s
humid.,
%
clouds,
%
prec.,
mm/h
press.,
hPa
HPBL,
m
18 january, mon
mon1800:00−34wnw11940 0.0 103319
03:00−35w11920 0.0 103419
06:00−35w11920 0.0 103419
09:00−36wsw11900 0.0 103419
12:00−31sw12780 0.0 1032159
15:00−27s126738 0.0 1028327
18:00−29sse2285100 0.0 102734
21:00−29s1289100 0.0 102536
19 january, tue
tue1900:00−31s229399 0.0 102519
03:00−32sw119698 0.0 102419
06:00−33sw119746 0.0 102419
09:00−33sw119525 0.0 102519
12:00−27s128553 0.0 1023199
15:00−24sse238359 0.0 1019312
18:00−27sse2295100 0.0 101924
21:00−25s2299100 0.1 101983
20 january, wed
wed2000:00−25sse1197100 0.0 101920
03:00−25se1198100 0.1 101919
06:00−26ssw01100100 0.0 101819
09:00−26n00100100 0.0 102020
12:00−21wsw019343 0.0 101965
15:00−16wnw267623 0.0 1017571
18:00−22nw12822 0.0 102020
21:00−24wsw128332 0.0 102320
21 january, thu
thu2100:00−26w118577 0.0 102620
03:00−27wsw118250 0.0 102719
06:00−26nnw017888 0.0 102719
09:00−26ene119694 0.1 102920
12:00−23nne1294100 0.2 1029194
15:00−21n1384100 0.3 1028455
18:00−26nw119243 0.0 103120
21:00−29wnw119639 0.0 103419
22 january, fri
fri2200:00−30w11960 0.0 103419
03:00−31wsw11970 0.0 103519
06:00−32wsw11980 0.0 103519
09:00−32wsw119510 0.0 103519
12:00−27nne0083100 0.0 1033130
15:00−24ese017765 0.0 1030281
18:00−28se118911 0.0 102919
21:00−29sse119118 0.0 102919